Location: Observatoire
(46.1952°N, 5.3391°E)
Time: 22:26:21
(UTC+01:00)

SR - All Passes

Search period start: 17 February 2026 00:00
Search period end: 27 February 2026 00:00
Orbit: 574 x 847 km, 66.7° (Epoch: 17 February)

Date Brightness Start Highest point End Pass type
(mag) Time Alt. Az. Time Alt. Az. Time Alt. Az.
17 Feb - 04:47:23 10° S 04:51:09 33° ESE 04:55:04 10° NE visible
17 Feb - 06:28:57 10° WSW 06:32:46 31° NW 06:36:47 10° NNE visible
17 Feb - 11:42:00 10° N 11:44:19 13° NNE 11:46:43 10° ENE daylight
17 Feb - 13:22:12 10° NNW 13:27:04 52° NE 13:32:17 10° SE daylight
17 Feb - 15:04:19 10° NW 15:08:31 26° WSW 15:12:58 10° SSW daylight
18 Feb - 03:54:25 10° SE 03:56:38 14° ESE 03:58:51 10° ENE visible
18 Feb - 05:33:26 10° SW 05:37:37 67° NW 05:42:04 10° NNE visible
18 Feb - 07:18:02 10° WNW 07:20:15 13° NNW 07:22:30 10° N daylight
18 Feb - 12:27:35 10° NNW 12:31:51 28° NE 12:36:24 10° ESE daylight
18 Feb - 14:08:52 10° NW 14:13:47 55° WSW 14:19:04 10° SSE daylight
19 Feb - 04:38:39 10° SSW 04:42:45 52° ESE 04:47:02 10° NE visible
19 Feb - 06:21:16 10° W 06:24:43 23° NW 06:28:18 10° NNE visible
19 Feb - 11:33:13 10° N 11:36:25 17° NE 11:39:46 10° ENE daylight
19 Feb - 13:13:52 10° NNW 13:18:52 75° NE 13:24:16 10° SE daylight
19 Feb - 14:56:40 10° WNW 15:00:06 18° WSW 15:03:39 10° SSW daylight
20 Feb - 03:44:51 10° SSE 03:48:06 22° ESE 03:51:28 10° ENE visible
20 Feb - 05:25:22 10° WSW 05:29:26 44° NW 05:33:44 10° NNE visible
20 Feb - 07:11:25 10° NW 07:12:22 11° NNW 07:13:20 10° NNW daylight
20 Feb - 10:39:36 10° NNE 10:40:45 11° NNE 10:41:55 10° NE daylight
20 Feb - 12:19:07 10° NNW 12:23:46 39° NE 12:28:45 10° ESE daylight
20 Feb - 14:00:47 10° NW 14:05:27 37° WSW 14:10:25 10° S daylight
21 Feb - 04:30:11 10° SSW 04:34:24 83° ESE 04:38:53 10° NE visible
21 Feb - 06:13:48 10° WNW 06:16:43 17° NW 06:19:45 10° N visible
21 Feb - 11:24:35 10° N 11:28:27 22° NE 11:32:32 10° E daylight
21 Feb - 13:05:35 10° NW 13:10:38 77° WSW 13:16:04 10° SSE daylight
21 Feb - 14:49:45 10° W 14:51:37 12° WSW 14:53:30 10° SW daylight
22 Feb - 03:35:49 10° S 03:39:38 34° ESE 03:43:38 10° NE visible
22 Feb - 05:17:29 10° WSW 05:21:18 31° NW 05:25:19 10° NNE visible
22 Feb - 10:30:23 10° N 10:32:54 14° NNE 10:35:29 10° ENE daylight
22 Feb - 12:10:42 10° NNW 12:15:37 54° NE 12:20:55 10° SE daylight
22 Feb - 13:52:53 10° WNW 13:57:04 26° WSW 14:01:29 10° SSW daylight
23 Feb - 02:42:44 10° SE 02:45:06 15° ESE 02:47:31 10° ENE visible
23 Feb - 04:21:55 10° SW 04:26:08 64° NW 04:30:36 10° NNE visible
23 Feb - 06:06:36 10° WNW 06:08:47 13° NNW 06:11:01 10° N visible
23 Feb - 11:16:03 10° NNW 11:20:25 29° NE 11:25:03 10° ESE daylight
23 Feb - 12:57:23 10° NW 13:02:20 53° WSW 13:07:37 10° SSE daylight
24 Feb - 03:27:06 10° SSW 03:31:14 54° ESE 03:35:34 10° NE visible
24 Feb - 05:09:48 10° W 05:13:14 22° NW 05:16:50 10° NNE visible
24 Feb - 10:21:38 10° N 10:24:59 18° NE 10:28:28 10° ENE daylight
24 Feb - 12:02:21 10° NNW 12:07:25 77° NE 12:12:52 10° SE daylight
24 Feb - 13:45:14 10° WNW 13:48:37 18° WSW 13:52:08 10° SSW daylight
25 Feb - 02:33:13 10° SSE 02:36:34 23° ESE 02:40:03 10° ENE visible
25 Feb - 04:13:51 10° WSW 04:17:55 42° NW 04:22:15 10° NNE visible
25 Feb - 06:00:00 10° NW 06:00:54 10° NNW 06:01:50 10° NNW visible
25 Feb - 09:27:50 10° N 09:29:19 11° NNE 09:30:49 10° NE daylight
25 Feb - 11:07:34 10° NNW 11:12:19 40° NE 11:17:22 10° ESE daylight
25 Feb - 12:49:17 10° NW 12:53:59 36° WSW 12:58:57 10° S daylight
26 Feb - 03:18:39 10° SSW 03:22:53 86° ESE 03:27:24 10° NE visible
26 Feb - 05:02:20 10° WNW 05:05:14 17° NW 05:08:15 10° N visible
26 Feb - 10:13:01 10° NNW 10:17:00 23° NE 10:21:11 10° E daylight
26 Feb - 11:54:04 10° NW 11:59:09 75° WSW 12:04:38 10° SSE daylight
26 Feb - 13:38:24 10° W 13:40:06 11° WSW 13:41:50 10° WSW daylight
